Decatur, IL

2:47 AM CDT on September 30, 2016 (GMT -0500)
Decatur

Weather History for KDEC - June, 2013

Change the Weather History Date:

Thursday, June 27, 2013

  Actual Average Record
Temperature  
Mean Temperature 82 °F 75 °F  
Max Temperature 91 °F 86 °F 93 °F (2012)
Min Temperature 73 °F 65 °F 52 °F (2012)
Degree Days  
Heating Degree Days 0 0  
Month to date heating degree days 14 14  
Since 1 June heating degree days 14 14  
Since 1 July heating degree days 5419 5518  
Cooling Degree Days 17 10  
Month to date cooling degree days 218 198  
Year to date cooling degree days 330 285  
Since 1 June cooling degree days 218 198  
Growing Degree Days 32 (Base 50)    
Moisture  
Dew Point 71 °F    
Average Humidity 72    
Maximum Humidity 100    
Minimum Humidity 44    
Precipitation  
Precipitation 0.00 in 0.13 in 0.89 in (2011)
Month to date precipitation 3.81 4.04  
Year to date precipitation 22.12 18.49  
Sea Level Pressure  
Sea Level Pressure 29.80 in    
Wind  
Wind Speed 10 mph (West)    
Max Wind Speed 15 mph    
Max Gust Speed 25 mph    
Visibility 6 miles    
Events Fog    
T = Trace of Precipitation, MM = Missing Value Source: NWS Daily Summary

Daily Weather History Graph

Daily Weather History Graph

Search for Another Location

Airport or City:

Trip Planner

Search our weather history database for the weather conditions in past years. The results will help you decide how hot, cold, wet, or windy it might be!

Date:

Astronomy

Jun. 27, 2013 Rise Set
Actual Time 5:29 AM CDT 8:27 PM CDT
Civil Twilight 4:56 AM CDT 9:00 PM CDT
Nautical Twilight 4:15 AM CDT 9:41 PM CDT
Astronomical Twilight 3:26 AM CDT 10:30 PM CDT
Moon 11:25 PM CDT (6/27) 10:29 AM CDT (6/27)
Length of Visible Light 16h 03m
Length of Day
14h 58m
Waning Gibbous, 76% of the Moon is Illuminated
Jun 27
Waning Gibbous
Jun 29
Last Quarter
Jul 8
New
Jul 15
First Quarter
Jul 22
Full

Hourly Weather History & Observations

Time (CDT) Temp. Heat Index Dew Point Humidity Pressure Visibility Wind Dir Wind Speed Gust Speed Precip Events Conditions
12:22 AM 73.4 °F - 71.6 °F 94% 29.80 in 2.5 mi Calm Calm - N/A   Clear
12:47 AM 75.2 °F - 73.4 °F 94% 29.80 in 4.0 mi WSW 3.5 mph - N/A   Clear
12:54 AM 73.9 °F - 72.0 °F 93% 29.78 in 3.0 mi SW 4.6 mph - N/A   Clear
1:54 AM 75.9 °F - 73.9 °F 94% 29.78 in 4.0 mi West 6.9 mph - N/A   Clear
2:35 AM 75.2 °F - 73.4 °F 94% 29.80 in 3.0 mi WSW 5.8 mph - 0.01 in   Scattered Clouds
2:38 AM 75.2 °F - 73.4 °F 94% 29.80 in 2.5 mi WSW 6.9 mph - 0.01 in   Mostly Cloudy
2:46 AM 75.2 °F - 73.4 °F 94% 29.80 in 2.5 mi WSW 6.9 mph - 0.01 in   Mostly Cloudy
2:54 AM 75.0 °F - 73.0 °F 94% 29.78 in 2.0 mi WSW 5.8 mph - 0.01 in   Overcast
3:09 AM 75.2 °F - 73.4 °F 94% 29.80 in 1.2 mi WSW 5.8 mph - N/A   Overcast
3:34 AM 75.2 °F - 73.4 °F 94% 29.80 in 0.8 mi West 6.9 mph - N/A   Overcast
3:54 AM 75.0 °F - 73.9 °F 96% 29.79 in 0.5 mi West 5.8 mph - N/A Fog Fog
4:54 AM 73.9 °F - 73.0 °F 97% 29.80 in 1.0 mi West 4.6 mph - N/A   Overcast
5:27 AM 75.2 °F - 73.4 °F 94% 29.82 in 2.5 mi West 3.5 mph - N/A   Overcast
5:34 AM 75.2 °F - 73.4 °F 94% 29.82 in 2.5 mi West 5.8 mph - N/A   Overcast
5:54 AM 75.0 °F - 73.0 °F 94% 29.80 in 2.5 mi West 5.8 mph - N/A   Mostly Cloudy
6:54 AM 75.9 °F - 73.9 °F 94% 29.80 in 3.0 mi WNW 9.2 mph - N/A   Mostly Cloudy
7:11 AM 77.0 °F - 73.4 °F 89% 29.82 in 7.0 mi WNW 9.2 mph - N/A   Partly Cloudy
7:54 AM 79.0 °F - 73.0 °F 82% 29.81 in 7.0 mi WNW 10.4 mph - N/A   Clear
8:54 AM 81.0 °F 85.8 °F 73.0 °F 77% 29.81 in 10.0 mi NW 10.4 mph 18.4 mph N/A   Clear
9:54 AM 82.9 °F 89.4 °F 73.9 °F 74% 29.83 in 10.0 mi WNW 12.7 mph - N/A   Clear
10:54 AM 84.0 °F 89.0 °F 71.1 °F 65% 29.83 in 10.0 mi WNW 12.7 mph 20.7 mph N/A   Partly Cloudy
11:54 AM 86.0 °F 92.2 °F 72.0 °F 63% 29.83 in 10.0 mi NW 12.7 mph 21.9 mph N/A   Partly Cloudy
12:54 PM 88.0 °F 92.9 °F 70.0 °F 55% 29.84 in 10.0 mi NW 12.7 mph 21.9 mph N/A   Clear
1:54 PM 89.1 °F 93.7 °F 69.1 °F 52% 29.85 in 10.0 mi NW 15.0 mph 25.3 mph N/A   Clear
2:54 PM 91.0 °F 94.3 °F 66.9 °F 45% 29.84 in 10.0 mi NW 11.5 mph 23.0 mph N/A   Clear
3:54 PM 90.0 °F 92.4 °F 66.0 °F 45% 29.83 in 10.0 mi WNW 9.2 mph 17.3 mph N/A   Clear
4:54 PM 88.0 °F 89.6 °F 64.9 °F 46% 29.81 in 10.0 mi WNW 13.8 mph - N/A   Clear
5:54 PM 86.0 °F 88.2 °F 66.0 °F 51% 29.78 in 10.0 mi WNW 11.5 mph - N/A   Clear
6:54 PM 84.0 °F 87.0 °F 68.0 °F 58% 29.77 in 10.0 mi WNW 10.4 mph 20.7 mph N/A   Clear
7:54 PM 82.0 °F 84.5 °F 66.9 °F 60% 29.75 in 10.0 mi WNW 11.5 mph - N/A   Clear
8:54 PM 80.1 °F 81.7 °F 64.0 °F 58% 29.75 in 10.0 mi WNW 10.4 mph - N/A   Clear
9:54 PM 79.0 °F - 64.0 °F 60% 29.77 in 10.0 mi WNW 10.4 mph - N/A   Clear
10:54 PM 77.0 °F - 64.0 °F 64% 29.79 in 10.0 mi WNW 9.2 mph - N/A   Clear
11:54 PM 77.0 °F - 64.9 °F 66% 29.81 in 10.0 mi West 10.4 mph - N/A   Clear